Location: Unspecified
(0.0000°N, 0.0000°E)
Time: 18:12:23
(UTC+00:00)

Vanguard 1 Rocket - Pass Details

Date: 19 April 2026
Orbit: 655 x 4212 km, 34.3° (Epoch: 17 May)

Event Time Altitude Azimuth Distance (km) Brightness Sun altitude
Rises 22:14:59 0° 285° (WNW) 7,929 12.6 -61.7°
Reaches altitude 10° 22:22:42 10° 299° (WNW) 7,240 12.2 -63.5°
Maximum altitude 22:40:59 23° 344° (NNW) 6,218 11.6 -67.5°
Drops below altitude 10° 22:57:28 10° 31° (NNE) 6,450 11.7 -70.9°
Sets 23:03:48 0° 46° (NE) 6,923 11.9 -72.1°
